Location: Oakhurst
(33.6448°N, 111.9543°W)
Time: 02:44:28
(UTC+00:00)

Max Valier Satellite - Visible Passes

Search period start: 26 July 2021 00:00
Search period end: 05 August 2021 00:00
Orbit: 485 x 503 km, 97.3° (Epoch: 25 July)

Date Brightness Start Highest point End Pass type
(mag) Time Alt. Az. Time Alt. Az. Time Alt. Az.
26 Jul ? 04:28:35 13° SW 04:30:50 22° W 04:33:43 10° NW visible
27 Jul ? 04:07:05 18° SSW 04:09:27 45° W 04:12:55 10° NNW visible
28 Jul ? 03:45:36 19° SSE 03:48:07 84° ENE 03:51:44 10° N visible
29 Jul ? 03:24:06 14° SE 03:26:51 39° ENE 03:30:14 10° N visible
30 Jul ? 03:02:55 10° ESE 03:05:38 21° ENE 03:08:22 10° NNE visible
30 Jul ? 04:37:11 12° SW 04:39:11 17° W 04:41:39 10° NW visible
31 Jul ? 04:15:41 18° SSW 04:17:46 33° W 04:21:04 10° NNW visible
01 Aug ? 03:54:12 22° S 03:56:24 71° W 03:59:59 10° NNW visible
02 Aug ? 03:32:42 19° SSE 03:35:05 53° ENE 03:38:36 10° N visible
03 Aug ? 03:11:12 12° SE 03:13:49 26° ENE 03:16:53 10° NNE visible
03 Aug ? 04:45:45 10° WSW 04:47:29 13° W 04:49:18 10° WNW visible
04 Aug ? 02:50:39 10° ESE 02:52:38 14° ENE 02:54:38 10° NE visible
04 Aug ? 04:24:15 18° SW 04:26:01 25° W 04:29:04 10° NW visible
